Location: Rounton
(54.4000°N, 1.3500°W)
Time: 09:03:25
(UTC+00:00)

Tiros 1 despin weight - Pass Details

Date: 03 December 2021
Orbit: 592 x 641 km, 48.2° (Epoch: 19 January)

Event Time Altitude Azimuth Distance (km) Brightness Sun altitude
Rises 15:04:49 0° 240° (WSW) 2,826 ? 3.3°
Reaches altitude 10° 15:07:15 10° 231° (SW) 1,922 ? 3.1°
Maximum altitude 15:11:11 32° 168° (SSE) 1,014 ? 2.7°
Drops below altitude 10° 15:15:07 10° 104° (ESE) 1,924 ? 2.3°
Sets 15:17:34 0° 95° (E) 2,829 ? 2.0°
